Location: Hilton Head Island
(32.2163°N, 80.7526°W)
Time: 13:49:13
(UTC-04:00)

Transit 2A Rocket - Pass Details

Date: 14 February 2026
Orbit: 583 x 900 km, 66.7° (Epoch: 12 March)

Event Time Altitude Azimuth Distance (km) Brightness Sun altitude
Rises 18:18:23 0° 254° (WSW) 3,473 11.8 -2.9°
Reaches altitude 10° 18:22:04 10° 277° (W) 2,563 9.2 -3.6°
Maximum altitude 18:25:22 15° 310° (NW) 2,232 8.0 -4.3°
Drops below altitude 10° 18:28:42 10° 344° (NNW) 2,574 7.8 -5.0°
Sets 18:32:26 0° 7° (N) 3,497 8.2 -5.8°
